Αρχική σελίδα
METAR-TAF:

METAR-TAF

Αεροδρόμια :

Derby Field

Lovelock, Νεβάδα, Ηνωμένες Πολιτείες Αμερικής

γεωγραφικό πλάτος: 40-03-59N, γεωγραφικό μήκος: 118-33-55W, υψόμετρο: 1190 μ

Παρών καιρός

Η αναφορά έγινε 1 ώρα και 1 λεπτά πριν, στις 17:53 UTC
Άνεμος 9 kt από BA
Θερμοκρασία 5°C
Υγρασία 48%
Πίεση 1026 hPa
Ορατότητα: 16.1 χλμ
Καθαρός ουρανός

METAR: KLOL 181753Z AUTO 04009KT 10SM CLR 05/M05 A3029 RMK AO2 SLP268 T00501050 10050 21089 51006 $

Χρόνος: 10:54 (18:54 UTC)


TAF: λείπει

Μετεωρολογικές αναφορές και προγνώσεις για περισσότερα από 4000 αεροδρόμια (δελτία METAR και TAF).

Οι διαθέσιμοι σταθμοί απεικονίζονται στο χάρτη με κίτρινες και κόκκινες κουκκίδες.

Μετακινήστε το ποντίκι πάνω από τις κουκκίδες για να δείτε το όνομα του σταθμού.

Στη συνέχεια, κάντε κλικ για να δείτε τις μετεωρολογικές αναφορές και τις προγνώσεις καιρού.

Για να αλλάξετε το χάρτη: κάντε κλικ στα πράσινα κουμπιά με τον μαύρο σταυρό για να ζουμάρετε, στο πράσινο κουμπί με την παύλα για να αφαιρέσετε το ζουμ ή στα πράσινα βέλη για να αντιπαραβάλλετε χάρτες.


METAR-TAF: